User: anonymous   Login
Location: Ida Center
(41.8662°N, 83.5713°W)
Time: 16:24:48
(UTC+00:00)
Language:

SeaSat 1 - Orbit

View from above orbital plane
View from above orbital plane
View from above satellite
View from above satellite

Ground track
Ground track

The orbit data is extracted from the following two-line orbital elements,

1 10967U 78064A   20016.34929310 -.00000095  00000-0  12432-4 0  9999
2 10967 108.0057 110.9896 0002349 281.2379  78.8501 14.43801574182726
Epoch (UTC): 16 January 2020 08:22:58
Eccentricity: 0.0002349
inclination: 108.0057°
perigee height: 744 km
apogee height: 747 km
right ascension of ascending node: 110.9896°
argument of perigee: 281.2379°
revolutions per day: 14.43801574
mean anomaly at epoch: 78.8501°
orbit number at epoch: 18272

The dashed part of the orbit path shows where the satellite is in the earth's shadow,  

DLR